QPF
0.00 0.00 0.00 0.00 0.00 0.00 0.00 0.00 0.00 0.00 0.00 0.00 0.01 0.01 0.01 0.01 0.01 0.01 0.01 0.01 0.01 0.01 0.01 0.01 0.01 0.01 0.01 0.00 0.00 0.00 0.01 0.01 0.01 0.00 0.01 0.01 0.03 0.04 0.05 0.06 0.08 0.12 0.14
0.00 0.00 0.00 0.00 0.00 0.00 0.00 0.00 0.00 0.00 0.00 0.00 0.00 0.01 0.01 0.01 0.01 0.01 0.01 0.01 0.01 0.01 0.02 0.02 0.02 0.02 0.02 0.01 0.01 0.01 0.01 0.01 0.01 0.01 0.00 0.00 0.02 0.03 0.04 0.05 0.06 0.07 0.10
0.00 0.00 0.00 0.00 0.00 0.00 0.00 0.00 0.00 0.00 0.00 0.00 0.00 0.01 0.01 0.01 0.01 0.01 0.01 0.01 0.01 0.02 0.02 0.02 0.02 0.03 0.02 0.02 0.02 0.01 0.01 0.01 0.01 0.01 0.00 0.00 0.00 0.01 0.03 0.04 0.05 0.09 0.08
0.00 0.00 0.00 0.00 0.00 0.00 0.00 0.00 0.00 0.00 0.00 0.00 0.00 0.01 0.01 0.01 0.01 0.01 0.01 0.02 0.02 0.02 0.02 0.02 0.02 0.02 0.03 0.04 0.03 0.03 0.02 0.02 0.01 0.01 0.00 0.00 0.00 0.01 0.02 0.03 0.05 0.10 0.11
0.00 0.00 0.00 0.00 0.00 0.00 0.00 0.00 0.00 0.00 0.00 0.00 0.01 0.01 0.01 0.00 0.01 0.01 0.01 0.01 0.01 0.01 0.02 0.02 0.02 0.02 0.02 0.02 0.01 0.01 0.02 0.03 0.02 0.02 0.01 0.01 0.01 0.01 0.02 0.02 0.04 0.08 0.12
0.00 0.00 0.00 0.00 0.00 0.00 0.00 0.00 0.00 0.00 0.00 0.00 0.00 0.00 0.00 0.00 0.00 0.00 0.00 0.00 0.00 0.01 0.01 0.02 0.02 0.01 0.01 0.00 0.00 0.00 0.00 0.01 0.01 0.01 0.01 0.01 0.02 0.02 0.03 0.03 0.03 0.06 0.10
0.00 0.00 0.00 0.00 0.00 0.00 0.00 0.00 0.00 0.00 0.00 0.00 0.00 0.00 0.01 0.01 0.00 0.00 0.00 0.00 0.00 0.00 0.01 0.02 0.01 0.01 0.02 0.02 0.02 0.01 0.01 0.00 0.00 0.00 0.00 0.01 0.01 0.02 0.04 0.04 0.05 0.06 0.09
0.00 0.00 0.00 0.00 0.00 0.00 0.00 0.00 0.00 0.00 0.00 0.01 0.00 0.01 0.01 0.02 0.01 0.00 0.00 0.00 0.00 0.00 0.01 0.02 0.03 0.03 0.04 0.04 0.05 0.05 0.04 0.03 0.02 0.01 0.01 0.00 0.00 0.01 0.03 0.04 0.05 0.05 0.06
0.00 0.00 0.00 0.00 0.00 0.00 0.00 0.00 0.00 0.00 0.00 0.00 0.01 0.01 0.02 0.03 0.02 0.00 0.00 0.00 0.00 0.01 0.01 0.02 0.04 0.05 0.04 0.01 0.02 0.03 0.03 0.03 0.01 0.01 0.00 0.00 0.00 0.00 0.00 0.01 0.02 0.04 0.05
0.00 0.00 0.00 0.00 0.00 0.00 0.00 0.00 0.00 0.00 0.00 0.00 0.01 0.01 0.02 0.03 0.04 0.01 0.00 0.00 0.00 0.01 0.02 0.03 0.02 0.01 0.01 0.00 0.01 0.03 0.03 0.03 0.04 0.04 0.03 0.01 0.00 0.00 0.00 0.00 0.01 0.02 0.05
0.00 0.00 0.00 0.00 0.00 0.00 0.00 0.01 0.01 0.01 0.01 0.01 0.01 0.02 0.03 0.03 0.04 0.01 0.00 0.00 0.01 0.01 0.01 0.02 0.03 0.01 0.00 0.00 0.01 0.01 0.01 0.02 0.03 0.04 0.05 0.04 0.03 0.02 0.01 0.00 0.00 0.01 0.03
0.00 0.00 0.00 0.00 0.00 0.00 0.01 0.01 0.01 0.01 0.01 0.01 0.02 0.03 0.04 0.05 0.03 0.02 0.01 0.00 0.00 0.01 0.01 0.02 0.03 0.00 0.00 0.00 0.00 0.00 0.00 0.00 0.00 0.01 0.02 0.02 0.02 0.02 0.02 0.02 0.02 0.01 0.02
0.00 0.00 0.01 0.01 0.01 0.01 0.01 0.01 0.01 0.01 0.01 0.01 0.02 0.03 0.02 0.04 0.05 0.02 0.01 0.00 0.00 0.00 0.00 0.01 0.01 0.00 0.00 0.00 0.00 0.00 0.00 0.00 0.00 0.01 0.01 0.01 0.02 0.02 0.03 0.04 0.05 0.06 0.04
0.01 0.01 0.01 0.01 0.01 0.01 0.01 0.00 0.00 0.00 0.00 0.01 0.02 0.02 0.02 0.03 0.06 0.07 0.06 0.04 0.03 0.02 0.02 0.02 0.01 0.01 0.00 0.00 0.01 0.01 0.01 0.01 0.01 0.02 0.02 0.02 0.03 0.04 0.04 0.04 0.05 0.07 0.06
0.01 0.01 0.01 0.01 0.01 0.01 0.01 0.01 0.00 0.00 0.01 0.01 0.01 0.01 0.01 0.02 0.03 0.02 0.02 0.02 0.03 0.04 0.03 0.02 0.02 0.03 0.04 0.05 0.05 0.06 0.06 0.06 0.04 0.03 0.03 0.04 0.05 0.06 0.06 0.06 0.07 0.09 0.08
0.01 0.02 0.02 0.01 0.01 0.00 0.00 0.01 0.01 0.01 0.01 0.01 0.00 0.00 0.00 0.00 0.00 0.00 0.00 0.00 0.00 0.00 0.00 0.00 0.01 0.03 0.05 0.08 0.10 0.11 0.12 0.11 0.10 0.09 0.08 0.08 0.08 0.08 0.07 0.08 0.09 0.09 0.09
0.02 0.01 0.01 0.01 0.00 0.00 0.00 0.01 0.01 0.01 0.01 0.01 0.01 0.01 0.00 0.00 0.00 0.00 0.00 0.00 0.00 0.00 0.00 0.00 0.02 0.04 0.06 0.10 0.11 0.12 0.12 0.13 0.14 0.13 0.11 0.10 0.10 0.10 0.10 0.09 0.10 0.10 0.10
0.02 0.02 0.02 0.02 0.01 0.00 0.00 0.00 0.00 0.00 0.01 0.02 0.02 0.02 0.01 0.01 0.00 0.00 0.00 0.00 0.00 0.01 0.01 0.02 0.04 0.05 0.06 0.08 0.10 0.12 0.11 0.12 0.13 0.13 0.12 0.11 0.11 0.11 0.11 0.10 0.10 0.10 0.11
0.02 0.02 0.03 0.02 0.01 0.01 0.01 0.01 0.00 0.01 0.01 0.02 0.04 0.05 0.04 0.01 0.01 0.01 0.00 0.00 0.01 0.05 0.07 0.07 0.07 0.06 0.07 0.08 0.09 0.10 0.11 0.11 0.13 0.14 0.13 0.14 0.13 0.13 0.13 0.12 0.11 0.12 0.14
0.02 0.02 0.02 0.02 0.01 0.01 0.01 0.01 0.01 0.01 0.02 0.03 0.05 0.06 0.05 0.04 0.03 0.05 0.05 0.05 0.06 0.08 0.09 0.09 0.08 0.07 0.07 0.08 0.09 0.10 0.11 0.11 0.12 0.14 0.14 0.13 0.13 0.12 0.13 0.14 0.14 0.14 0.14
0.01 0.01 0.02 0.01 0.01 0.01 0.01 0.01 0.01 0.02 0.03 0.04 0.05 0.06 0.05 0.02 0.02 0.06 0.09 0.11 0.11 0.10 0.10 0.09 0.08 0.07 0.07 0.08 0.10 0.11 0.10 0.11 0.11 0.12 0.13 0.13 0.13 0.12 0.12 0.13 0.14 0.16 0.17
0.01 0.01 0.01 0.01 0.01 0.02 0.02 0.02 0.03 0.03 0.04 0.05 0.06 0.07 0.06 0.04 0.04 0.06 0.07 0.08 0.09 0.09 0.08 0.07 0.07 0.08 0.08 0.08 0.10 0.12 0.11 0.10 0.11 0.12 0.14 0.14 0.14 0.14 0.13 0.12 0.12 0.15 0.17
0.01 0.01 0.01 0.02 0.03 0.04 0.04 0.04 0.04 0.04 0.04 0.05 0.07 0.09 0.09 0.08 0.08 0.07 0.06 0.06 0.06 0.07 0.06 0.07 0.06 0.06 0.06 0.07 0.08 0.11 0.11 0.10 0.10 0.11 0.14 0.15 0.15 0.15 0.15 0.13 0.12 0.13 0.15
0.00 0.01 0.02 0.03 0.04 0.06 0.06 0.06 0.06 0.05 0.05 0.06 0.08 0.11 0.10 0.08 0.07 0.07 0.05 0.04 0.04 0.05 0.05 0.05 0.06 0.06 0.06 0.07 0.09 0.10 0.09 0.08 0.09 0.10 0.13 0.16 0.17 0.17 0.17 0.15 0.15 0.15 0.16
0.00 0.01 0.02 0.04 0.05 0.06 0.07 0.07 0.06 0.06 0.07 0.08 0.09 0.10 0.09 0.07 0.06 0.05 0.04 0.03 0.03 0.04 0.03 0.04 0.05 0.05 0.06 0.07 0.08 0.08 0.06 0.04 0.04 0.06 0.10 0.14 0.17 0.18 0.17 0.16 0.17 0.17 0.18
0.01 0.02 0.04 0.07 0.08 0.09 0.09 0.08 0.07 0.07 0.09 0.11 0.10 0.09 0.09 0.08 0.06 0.03 0.03 0.03 0.02 0.02 0.02 0.03 0.04 0.04 0.04 0.06 0.06 0.04 0.03 0.02 0.01 0.02 0.04 0.09 0.14 0.17 0.18 0.18 0.18 0.19 0.19
MSLP
1013.30 1013.73 1014.08 1014.34 1014.50 1014.59 1014.61 1014.60 1014.57 1014.56 1014.56 1014.58 1014.62 1014.66 1014.69 1014.71 1014.70 1014.68 1014.64 1014.61 1014.58 1014.57 1014.57 1014.59 1014.60 1014.61 1014.59 1014.54 1014.46 1014.33 1014.15 1013.94 1013.69 1013.40 1013.09 1012.75 1012.41 1012.07 1011.76 1011.48 1011.26 1011.12 1011.06
1013.07 1013.41 1013.69 1013.90 1014.05 1014.13 1014.17 1014.18 1014.19 1014.19 1014.21 1014.23 1014.26 1014.28 1014.29 1014.29 1014.27 1014.25 1014.22 1014.19 1014.16 1014.15 1014.14 1014.13 1014.12 1014.10 1014.06 1014.00 1013.92 1013.82 1013.69 1013.54 1013.36 1013.14 1012.89 1012.60 1012.28 1011.94 1011.60 1011.28 1011.02 1010.82 1010.72
1012.81 1013.07 1013.29 1013.45 1013.57 1013.65 1013.71 1013.75 1013.79 1013.83 1013.86 1013.89 1013.92 1013.93 1013.94 1013.92 1013.90 1013.88 1013.85 1013.82 1013.80 1013.77 1013.74 1013.70 1013.65 1013.59 1013.52 1013.45 1013.37 1013.28 1013.20 1013.10 1012.98 1012.84 1012.65 1012.41 1012.12 1011.79 1011.45 1011.11 1010.82 1010.59 1010.45
1012.51 1012.72 1012.88 1013.01 1013.12 1013.20 1013.28 1013.34 1013.41 1013.47 1013.53 1013.57 1013.60 1013.62 1013.62 1013.60 1013.58 1013.55 1013.52 1013.49 1013.46 1013.41 1013.36 1013.28 1013.19 1013.09 1012.99 1012.88 1012.79 1012.72 1012.67 1012.62 1012.56 1012.48 1012.36 1012.18 1011.94 1011.64 1011.31 1010.97 1010.66 1010.41 1010.24
1012.17 1012.35 1012.50 1012.62 1012.71 1012.80 1012.89 1012.97 1013.06 1013.14 1013.21 1013.26 1013.30 1013.31 1013.31 1013.29 1013.26 1013.23 1013.20 1013.16 1013.11 1013.05 1012.96 1012.85 1012.71 1012.57 1012.43 1012.30 1012.20 1012.14 1012.10 1012.10 1012.10 1012.08 1012.02 1011.91 1011.72 1011.47 1011.16 1010.84 1010.53 1010.27 1010.09
1011.79 1011.98 1012.14 1012.26 1012.37 1012.46 1012.55 1012.64 1012.73 1012.81 1012.88 1012.94 1012.96 1012.97 1012.96 1012.94 1012.91 1012.87 1012.83 1012.78 1012.71 1012.62 1012.50 1012.36 1012.19 1012.01 1011.84 1011.69 1011.58 1011.52 1011.51 1011.54 1011.59 1011.63 1011.63 1011.58 1011.45 1011.25 1011.00 1010.71 1010.42 1010.17 1009.99
1011.35 1011.59 1011.78 1011.93 1012.05 1012.15 1012.24 1012.33 1012.40 1012.47 1012.53 1012.56 1012.57 1012.57 1012.54 1012.51 1012.46 1012.42 1012.37 1012.30 1012.22 1012.11 1011.97 1011.80 1011.61 1011.40 1011.21 1011.05 1010.94 1010.88 1010.89 1010.95 1011.04 1011.13 1011.19 1011.19 1011.12 1010.98 1010.78 1010.53 1010.28 1010.05 1009.88
1010.85 1011.16 1011.41 1011.60 1011.73 1011.84 1011.92 1011.99 1012.04 1012.08 1012.10 1012.11 1012.09 1012.06 1012.02 1011.97 1011.92 1011.86 1011.80 1011.73 1011.64 1011.52 1011.37 1011.19 1010.98 1010.77 1010.57 1010.40 1010.29 1010.24 1010.26 1010.34 1010.45 1010.58 1010.68 1010.73 1010.72 1010.63 1010.48 1010.29 1010.08 1009.89 1009.74
1010.30 1010.68 1010.98 1011.21 1011.37 1011.47 1011.54 1011.58 1011.59 1011.60 1011.58 1011.55 1011.51 1011.46 1011.40 1011.34 1011.28 1011.23 1011.16 1011.09 1011.00 1010.88 1010.73 1010.55 1010.35 1010.14 1009.94 1009.78 1009.67 1009.63 1009.66 1009.74 1009.86 1010.00 1010.13 1010.21 1010.23 1010.19 1010.09 1009.94 1009.78 1009.63 1009.52
1009.70 1010.14 1010.49 1010.74 1010.91 1011.01 1011.05 1011.06 1011.04 1011.01 1010.96 1010.90 1010.83 1010.77 1010.71 1010.65 1010.60 1010.55 1010.50 1010.44 1010.36 1010.25 1010.11 1009.95 1009.76 1009.56 1009.37 1009.22 1009.11 1009.07 1009.08 1009.16 1009.28 1009.41 1009.53 1009.62 1009.66 1009.64 1009.57 1009.47 1009.35 1009.24 1009.16
1009.09 1009.56 1009.92 1010.18 1010.34 1010.42 1010.45 1010.42 1010.37 1010.30 1010.23 1010.15 1010.08 1010.02 1009.97 1009.93 1009.90 1009.88 1009.85 1009.81 1009.76 1009.67 1009.55 1009.40 1009.23 1009.04 1008.87 1008.71 1008.61 1008.55 1008.55 1008.61 1008.70 1008.81 1008.91 1008.98 1009.02 1009.00 1008.95 1008.86 1008.77 1008.70 1008.66
1008.50 1008.95 1009.29 1009.52 1009.66 1009.72 1009.71 1009.66 1009.58 1009.50 1009.41 1009.34 1009.28 1009.25 1009.23 1009.23 1009.24 1009.25 1009.26 1009.26 1009.23 1009.16 1009.06 1008.93 1008.77 1008.59 1008.41 1008.26 1008.14 1008.06 1008.04 1008.06 1008.12 1008.19 1008.25 1008.30 1008.31 1008.28 1008.22 1008.15 1008.07 1008.02 1008.01
1007.98 1008.35 1008.63 1008.81 1008.90 1008.92 1008.87 1008.79 1008.70 1008.61 1008.53 1008.48 1008.46 1008.47 1008.50 1008.56 1008.62 1008.69 1008.74 1008.77 1008.77 1008.72 1008.63 1008.49 1008.33 1008.15 1007.96 1007.79 1007.65 1007.56 1007.50 1007.49 1007.50 1007.53 1007.56 1007.57 1007.55 1007.51 1007.44 1007.36 1007.28 1007.24 1007.24
1007.55 1007.81 1007.99 1008.09 1008.11 1008.06 1007.97 1007.86 1007.75 1007.66 1007.60 1007.58 1007.61 1007.68 1007.79 1007.91 1008.04 1008.17 1008.26 1008.33 1008.34 1008.29 1008.20 1008.05 1007.86 1007.66 1007.45 1007.25 1007.09 1006.96 1006.88 1006.84 1006.82 1006.82 1006.82 1006.81 1006.77 1006.71 1006.62 1006.53 1006.46 1006.42 1006.42
1007.24 1007.37 1007.42 1007.41 1007.33 1007.21 1007.06 1006.90 1006.77 1006.68 1006.64 1006.67 1006.75 1006.89 1007.07 1007.27 1007.47 1007.64 1007.78 1007.86 1007.88 1007.82 1007.70 1007.52 1007.30 1007.05 1006.80 1006.57 1006.38 1006.23 1006.13 1006.08 1006.05 1006.04 1006.04 1006.02 1005.98 1005.91 1005.83 1005.74 1005.66 1005.61 1005.61
1007.07 1007.04 1006.95 1006.81 1006.62 1006.39 1006.17 1005.96 1005.80 1005.70 1005.68 1005.74 1005.88 1006.08 1006.33 1006.59 1006.85 1007.08 1007.24 1007.33 1007.34 1007.25 1007.09 1006.86 1006.58 1006.28 1005.98 1005.72 1005.50 1005.33 1005.23 1005.18 1005.17 1005.18 1005.20 1005.20 1005.19 1005.14 1005.08 1005.00 1004.92 1004.87 1004.87
1007.00 1006.82 1006.58 1006.30 1005.99 1005.66 1005.35 1005.07 1004.86 1004.74 1004.72 1004.81 1004.98 1005.24 1005.54 1005.86 1006.17 1006.43 1006.61 1006.70 1006.68 1006.56 1006.34 1006.05 1005.70 1005.35 1005.00 1004.70 1004.46 1004.29 1004.19 1004.16 1004.19 1004.25 1004.32 1004.38 1004.41 1004.42 1004.39 1004.34 1004.28 1004.24 1004.24
1007.00 1006.68 1006.30 1005.89 1005.45 1005.01 1004.60 1004.25 1003.98 1003.82 1003.79 1003.87 1004.07 1004.36 1004.70 1005.06 1005.40 1005.68 1005.87 1005.95 1005.91 1005.74 1005.47 1005.12 1004.72 1004.31 1003.92 1003.58 1003.32 1003.16 1003.08 1003.09 1003.17 1003.29 1003.42 1003.56 1003.66 1003.72 1003.75 1003.74 1003.72 1003.69 1003.70
1007.00 1006.56 1006.07 1005.54 1004.99 1004.44 1003.93 1003.49 1003.16 1002.95 1002.88 1002.95 1003.15 1003.45 1003.82 1004.20 1004.56 1004.86 1005.06 1005.13 1005.07 1004.87 1004.56 1004.16 1003.71 1003.26 1002.83 1002.47 1002.20 1002.04 1001.99 1002.03 1002.16 1002.34 1002.55 1002.75 1002.92 1003.05 1003.14 1003.18 1003.19 1003.19 1003.22
1006.95 1006.43 1005.85 1005.22 1004.57 1003.93 1003.32 1002.80 1002.40 1002.13 1002.02 1002.06 1002.25 1002.55 1002.92 1003.32 1003.70 1004.01 1004.21 1004.29 1004.21 1004.00 1003.67 1003.25 1002.78 1002.29 1001.85 1001.47 1001.20 1001.04 1001.01 1001.08 1001.24 1001.46 1001.72 1001.97 1002.20 1002.38 1002.52 1002.60 1002.65 1002.69 1002.73
1006.83 1006.25 1005.61 1004.90 1004.17 1003.45 1002.76 1002.17 1001.69 1001.37 1001.21 1001.22 1001.38 1001.67 1002.04 1002.45 1002.84 1003.16 1003.39 1003.47 1003.42 1003.22 1002.89 1002.47 1002.00 1001.52 1001.07 1000.69 1000.41 1000.26 1000.22 1000.29 1000.46 1000.70 1000.97 1001.24 1001.49 1001.70 1001.86 1001.98 1002.05 1002.12 1002.19
1006.62 1006.01 1005.32 1004.57 1003.78 1002.99 1002.25 1001.59 1001.06 1000.69 1000.48 1000.46 1000.59 1000.87 1001.23 1001.64 1002.04 1002.38 1002.63 1002.75 1002.72 1002.56 1002.27 1001.88 1001.43 1000.97 1000.54 1000.17 999.89 999.72 999.67 999.72 999.87 1000.08 1000.32 1000.57 1000.80 1001.00 1001.16 1001.28 1001.37 1001.45 1001.55
1006.38 1005.75 1005.03 1004.24 1003.41 1002.58 1001.79 1001.09 1000.52 1000.11 999.87 999.81 999.92 1000.18 1000.53 1000.93 1001.34 1001.71 1001.98 1002.14 1002.16 1002.05 1001.81 1001.48 1001.09 1000.67 1000.26 999.91 999.63 999.45 999.36 999.37 999.46 999.61 999.79 999.97 1000.15 1000.31 1000.43 1000.53 1000.61 1000.69 1000.81
1006.15 1005.51 1004.77 1003.95 1003.10 1002.24 1001.43 1000.70 1000.11 999.66 999.40 999.32 999.41 999.64 999.98 1000.38 1000.78 1001.16 1001.46 1001.66 1001.73 1001.67 1001.50 1001.24 1000.90 1000.54 1000.18 999.85 999.57 999.37 999.24 999.19 999.21 999.27 999.36 999.46 999.55 999.63 999.70 999.75 999.81 999.89 1000.01
1006.03 1005.37 1004.61 1003.78 1002.90 1002.03 1001.21 1000.47 999.86 999.41 999.12 999.02 999.09 999.30 999.61 999.99 1000.39 1000.76 1001.07 1001.29 1001.40 1001.40 1001.29 1001.09 1000.82 1000.51 1000.19 999.89 999.62 999.40 999.23 999.12 999.05 999.02 999.01 999.01 999.01 999.01 999.01 999.02 999.04 999.10 999.22
1006.08 1005.39 1004.62 1003.77 1002.88 1002.01 1001.18 1000.44 999.83 999.37 999.08 998.96 999.00 999.18 999.46 999.81 1000.17 1000.52 1000.82 1001.04 1001.16 1001.19 1001.12 1000.97 1000.75 1000.49 1000.21 999.93 999.67 999.44 999.24 999.07 998.93 998.82 998.72 998.63 998.54 998.47 998.40 998.36 998.35 998.39 998.50
Thickness
5725 5721 5717 5712 5708 5704 5699 5695 5691 5687 5683 5679 5676 5672 5668 5665 5661 5657 5652 5649 5645 5642 5639 5637 5634 5632 5630 5629 5629 5629 5629 5630 5630 5636 5641 5647 5651 5655 5660 5664 5669 5674 5679
5726 5721 5715 5711 5706 5701 5697 5694 5690 5686 5682 5678 5674 5669 5665 5661 5657 5652 5646 5643 5638 5634 5631 5628 5625 5623 5621 5619 5618 5617 5618 5620 5620 5622 5628 5632 5638 5644 5649 5654 5661 5667 5672
5727 5720 5714 5709 5705 5700 5696 5692 5688 5683 5678 5674 5670 5665 5660 5656 5651 5646 5641 5636 5631 5626 5622 5619 5616 5613 5611 5609 5608 5607 5608 5610 5612 5614 5618 5623 5628 5634 5639 5645 5651 5658 5664
5726 5720 5713 5708 5703 5699 5695 5690 5685 5680 5675 5670 5666 5661 5656 5651 5646 5641 5635 5629 5624 5619 5614 5610 5607 5605 5602 5600 5599 5598 5598 5599 5600 5602 5606 5611 5617 5624 5628 5633 5639 5647 5654
5723 5717 5712 5707 5702 5697 5692 5687 5682 5677 5672 5667 5661 5656 5651 5645 5641 5636 5629 5623 5617 5611 5606 5603 5600 5598 5596 5594 5593 5592 5590 5589 5590 5592 5596 5600 5606 5611 5616 5623 5629 5637 5645
5719 5714 5710 5705 5699 5694 5689 5684 5679 5673 5668 5662 5656 5650 5645 5640 5634 5626 5619 5613 5607 5602 5598 5595 5593 5591 5591 5589 5588 5586 5584 5581 5581 5582 5585 5589 5594 5599 5605 5611 5617 5623 5631
5717 5711 5707 5701 5695 5690 5686 5681 5674 5669 5663 5657 5651 5645 5639 5633 5626 5618 5611 5605 5600 5595 5591 5588 5586 5587 5586 5585 5583 5581 5579 5577 5575 5574 5576 5579 5583 5588 5593 5598 5603 5610 5619
5714 5709 5704 5698 5693 5687 5682 5676 5670 5664 5657 5651 5646 5640 5634 5628 5621 5613 5605 5599 5594 5590 5586 5583 5581 5580 5579 5578 5576 5576 5574 5574 5573 5571 5572 5574 5577 5580 5583 5588 5593 5601 5612
5712 5707 5702 5696 5689 5683 5676 5670 5665 5658 5651 5646 5640 5635 5629 5623 5616 5608 5599 5594 5590 5587 5584 5582 5579 5577 5575 5573 5570 5569 5568 5568 5569 5570 5571 5572 5573 5575 5576 5578 5584 5590 5600
5711 5706 5700 5694 5686 5678 5671 5664 5658 5652 5645 5640 5636 5630 5624 5618 5612 5603 5594 5590 5586 5584 5581 5579 5577 5575 5572 5568 5565 5563 5562 5562 5562 5564 5565 5566 5568 5570 5571 5573 5576 5581 5590
5710 5704 5697 5690 5682 5674 5666 5659 5652 5646 5640 5635 5630 5625 5620 5614 5608 5601 5592 5586 5583 5580 5577 5575 5573 5570 5566 5563 5559 5558 5557 5556 5555 5556 5557 5560 5563 5566 5569 5572 5575 5578 5583
5703 5696 5690 5684 5678 5672 5663 5655 5648 5641 5634 5630 5625 5621 5617 5612 5607 5600 5592 5583 5579 5575 5572 5570 5567 5562 5559 5555 5553 5552 5550 5548 5548 5550 5552 5554 5557 5561 5565 5570 5574 5577 5582
5694 5688 5682 5676 5670 5664 5657 5650 5642 5636 5630 5627 5623 5619 5614 5610 5604 5597 5589 5581 5574 5569 5567 5565 5560 5554 5551 5549 5547 5546 5544 5543 5543 5545 5548 5551 5554 5557 5560 5564 5569 5573 5578
5685 5679 5673 5666 5661 5656 5650 5646 5639 5634 5629 5624 5618 5613 5608 5603 5597 5591 5584 5576 5569 5564 5561 5559 5555 5552 5548 5547 5546 5545 5542 5542 5542 5544 5545 5547 5550 5552 5554 5558 5561 5566 5570
5674 5668 5662 5658 5655 5649 5646 5642 5638 5633 5626 5618 5612 5606 5600 5594 5589 5580 5574 5570 5565 5560 5553 5551 5551 5551 5550 5549 5548 5547 5545 5543 5542 5541 5542 5542 5544 5546 5550 5553 5556 5559 5563
5661 5657 5652 5649 5646 5644 5641 5639 5636 5629 5624 5617 5609 5602 5598 5591 5583 5575 5569 5562 5555 5548 5544 5547 5548 5549 5549 5548 5546 5545 5544 5542 5542 5541 5540 5539 5540 5542 5545 5548 5550 5553 5558
5648 5645 5642 5640 5639 5637 5634 5630 5626 5623 5617 5611 5604 5597 5591 5586 5579 5572 5565 5557 5550 5542 5541 5546 5547 5547 5547 5546 5544 5543 5542 5542 5540 5539 5538 5538 5537 5538 5540 5542 5545 5549 5553
5634 5633 5631 5630 5629 5627 5625 5622 5619 5614 5610 5608 5602 5594 5587 5580 5574 5568 5560 5552 5552 5547 5547 5548 5548 5547 5546 5544 5543 5542 5541 5540 5538 5537 5537 5537 5537 5537 5538 5540 5543 5546 5550
5620 5619 5619 5618 5618 5617 5615 5612 5610 5607 5603 5600 5598 5594 5584 5577 5570 5564 5556 5552 5555 5555 5554 5552 5550 5547 5545 5544 5542 5540 5538 5537 5536 5536 5536 5536 5536 5536 5537 5539 5541 5543 5547
5607 5606 5605 5605 5605 5605 5603 5601 5598 5596 5593 5590 5588 5586 5582 5575 5571 5567 5559 5557 5555 5555 5553 5552 5550 5548 5545 5542 5539 5537 5535 5534 5534 5534 5534 5535 5535 5535 5537 5538 5540 5543 5546
5591 5592 5590 5590 5591 5590 5589 5587 5586 5584 5582 5580 5579 5579 5573 5570 5569 5567 5564 5560 5557 5554 5552 5550 5548 5545 5543 5539 5537 5535 5533 5533 5532 5532 5533 5533 5534 5534 5536 5537 5539 5541 5544
5571 5572 5571 5571 5570 5571 5572 5572 5573 5573 5572 5570 5569 5569 5565 5564 5565 5564 5561 5558 5555 5553 5550 5547 5545 5543 5540 5537 5535 5533 5531 5531 5530 5531 5531 5531 5532 5533 5534 5535 5537 5540 5542
5551 5551 5551 5551 5552 5552 5555 5557 5559 5560 5561 5560 5560 5560 5558 5559 5558 5556 5555 5554 5551 5549 5546 5543 5541 5539 5537 5535 5532 5530 5528 5528 5528 5528 5528 5529 5530 5531 5532 5534 5536 5538 5540
5532 5531 5532 5533 5534 5536 5538 5541 5544 5546 5550 5551 5552 5551 5552 5552 5552 5551 5550 5548 5546 5544 5542 5539 5537 5535 5533 5531 5530 5529 5527 5525 5525 5526 5527 5527 5528 5530 5532 5533 5536 5538 5540
5515 5514 5514 5515 5516 5519 5522 5526 5530 5535 5539 5541 5543 5543 5544 5545 5545 5544 5543 5541 5539 5538 5537 5535 5533 5531 5530 5529 5528 5526 5523 5521 5520 5521 5523 5525 5527 5529 5531 5533 5535 5537 5540
5500 5499 5499 5500 5502 5505 5509 5514 5518 5523 5527 5529 5532 5533 5534 5535 5536 5537 5536 5534 5533 5532 5532 5531 5530 5529 5528 5527 5526 5523 5520 5519 5518 5517 5518 5522 5526 5528 5530 5532 5535 5537 5540